Starlink 5451

operational
NORAD ID: 54771 Int'l Des: 2022-175 Owner: SPXS Country: US Constellation: starlink
LEOCIRCULAR

关于 Starlink 5451

正在加载描述...

实时位置

正在加载3D地球...

即将过境

高度历史

Altitude vs Time

uPlot chart will show altitude changes over time

两行轨道根数

1 54771U 22175P 25349.90626020 .00003733 00000-0 25247-3 0 9998
2 54771 53.2177 55.0391 0001337 81.7502 278.3642 15.08845733167348
Epoch: Dec 15, 2025 • Age: 18 hours

当前状态

高度 539.5 km
速度 7.60 km/s
星下点 13.94°N, 107.15°E
发射日期 Dec 17, 2022
运行时间 2.9 years
类型 internet

技术详情

分类 Payload
质量 305.00 kg
干质量 290.00 kg
总质量 305.00 kg
长度 0.20 m
直径 2.80 m
跨度 9.00 m
形状 Box + pan
制造商 SPXS
平台类型 Starlink
阶段状态 In Orbit
所有者/国家 SPXS/US

大型星座

Loading constellations...